User: anonymous   Login
Location: Caltech
(34.1382°N, 118.1253°W)
Time: 04:40:13
(UTC-08:00)
Language:

PAYLOAD A - Orbit

View from above orbital plane
View from above orbital plane
View from above satellite
View from above satellite

Ground track
Ground track

The orbit data is extracted from the following two-line orbital elements,

1 27840U 03031A   16044.55832034  .00000013  00000-0  17045-4 0  9998
2 27840  98.1993  57.5269 0098852 154.5584 317.1319 14.38843208662909
Epoch (UTC): 13 February 2016 13:23:58
Eccentricity: 0.0098852
inclination: 98.1993°
perigee height: 692 km
apogee height: 833 km
right ascension of ascending node: 57.5269°
argument of perigee: 154.5584°
revolutions per day: 14.38843208
mean anomaly at epoch: 317.1319°
orbit number at epoch: 66290

The dashed part of the orbit path shows where the satellite is in the earth's shadow,  

DLR